User: anonymous   Login
Location: Owatonna
(44.0840°N, 93.2260°W)
Time: 09:09:05
(UTC-05:00)
Language:

Tiangong 1 - Orbit

View from above orbital plane
View from above orbital plane
View from above satellite
View from above satellite

Ground track
Ground track

The orbit data is extracted from the following two-line orbital elements,

1 37820U 11053A   15210.97065839  .00014517  00000-0  15928-3 0  9992
2 37820 042.7672 019.3764 0014373 317.9514 181.0231 15.62914907220013
Epoch (UTC): 29 July 2015 23:17:44
Eccentricity: 0.0014373
inclination: 42.7672°
perigee height: 369 km
apogee height: 389 km
right ascension of ascending node: 19.3764°
argument of perigee: 317.9514°
revolutions per day: 15.62914907
mean anomaly at epoch: 181.0231°
orbit number at epoch: 22001

The dashed part of the orbit path shows where the satellite is in the earth's shadow,  

DLR